星链-5378 (STARLINK-5378 )

导读 | 豆包AI

STARLINK-5378是美国太空探索技术公司星链计划的卫星,于2023年3月29日发射升空,属于星链卫星互联网项目,旨在为全球用户提供低延迟、高速率的宽带互联网服务,尤其覆盖偏远地区等网络基础设施匮乏区域,该卫星进一步扩充了星链低轨卫星星座的规模。

基本信息
目录编号:
56139
目录名称:
STARLINK-5378
国际标识:
2023-046AZ
轨道中心:
EARTH
卫星名称:
星链-5378
卫星全名:
星链-5378 (STARLINK-5378 )
卫星状态:
已陨落 最后检测时间 2024-05-24
发射日期:
2023-03-29 UTC
国别 :
美国 (US)
星等 :
--
轨道信息
数据来源 国际轨道数据
星历时间: 2024-05-24T20:12:16+0800
轨道信息已过期660天
半长轴: 6587.788km
偏心率: 0.0006572
轨道倾角: 42.992°
近地点辐角 237.158°
升交点赤经 62.293°
平近点角 277.274°
近地点: 205.323km
远地点: 213.983km
周期: 88.689分钟
每日圈数: 16.236535
详细信息
固有亮度:
5
最大亮度:
2.5
卫星平台:
Starlink v1.5
覆盖范围:
全球
运营商:
太空探索技术公司
运营商所在国:
美国
制造商(研发单位):
太空探索技术公司
制造商所在国:
美国
使用方式:
暂无
卫星简介
星链(Starlink)计划是由太空探索技术公司(SpaceX)提出的一个巨型低轨卫星互联网星座项目,计划在2019年至2024年间在太空搭建由约1.2万颗卫星组成的“星链”网络,其中1584颗将部署在地球上空550千米处的近地轨道,并从2020年开始工作。该卫星已陨落。